DECAYED
Showing default

HAVEN-DEMO, 66312 (Decayed)

Orbit data source: Space-Track

HAVEN-DEMO, 66312 was a payload satellite owned by Vast Space (US) in LEO that was launched on Sun, 02 Nov 2025 UTC via an FALCON 9 launch vehicle from the Air Force Eastern Test Range (AFETR). Payload-class satellites include a variety of spacecraft equipped with specific instruments for various scientific and technological missions. These include communications satellites like Starlink; space stations such as the ISS; scientific satellites like the Hubble; Earth observation satellites from companies like Planet Labs, Umbra, and HawkEye 360; GPS; miniature CubeSats for education and research; and military/defense satellites.

Loading next visibility...
Identifier
66312, 2025-248T
Orbit
Decayed
Country
Flag of USUS
Related business
Manufacturer
Vast Space
Mission
Decayed Commercial Spaceship
Bus & Motor
HAVEN-DEMO, Unknown motor
Mass
515 kg wet, 515 kg dry
Launch date (UTC)
2025-11-02 (8 months ago)
Launch vehicle
FALCON 9
Launch site
Air Force Eastern Test Range (AFETR)
Object type
Payload
Rocket body
Debris
Shape & HBR
Box + 1 Pan, 2.5 m
Radar Cross Section
1.200 m², Large (>1 m²)

Expand to show TLE details & history
Last TLE update: 4 months ago

TLE from 4 months ago
0 HAVEN-DEMO
1 66312U 25248T   26038.25235715  .00058433  00000-0  75011-3 0  9998
2 66312  45.3987  95.1613 0125848 328.6136  30.7295 15.49394688 15939
Epoch: 2026-02-07T06:03Z
TLE epoch observation values (Epoch: 2026-02-07T06:03:23.657Z)
Latitude
-0.00002°
Longitude
-133.06584°
Altitude
345.309 km
Speed
7.745 km/s
True Right ascension
06h 20m 38s
True Declination
0° 00' 00"
Sunlit
Object was in full shadow at epoch
Visualization orbit readout
Latitude
Unknown
Longitude
Unknown
Altitude
Unknown
Speed
Unknown
Apparent Right ascension
Unknown
Apparent Declination
Unknown
Sunlit
N/A
Visualization observer readout
Local Sidereal Time
07:18:30
Azimuth
Unknown
Elevation
Unknown
Doppler factor
Unknown
Orbital elements
Apogee altitude
505.607 km
Perigee altitude
334.499 km
Semi-major axis
6,798.19 km
Eccentricity
0.01258
Inclination
45.3987°
RAAN
95.1613°
Arg. of periapsis
328.6136°
True anomaly
31.47647°
Mean anomaly
30.7295°
Eccentric anomaly
31.10197°
Mean motion
3.87216 °/min
Orbital period
92.97 mins
BSTAR
0.00075011
Loading maneuver chart data...
Computing Atmospheric mass density...
Loading historical data...
Loading historical data...
Loading historical data...
Loading historical data...
Loading historical data...
Loading historical data...
Loading historical data...

Documentation

Showing up to 5 results
|